Miscellaneous Local Product
Issued by NWS North Platte, NE

Home | Current Version | Previous Version | Graphics & Text | Print | Product List | Glossary On
Versions: 1 2 3 4 5 6 7 8 9 10 11 12 13 14 15 16 17 18 19 20 21 22 23 24 25 26 27 28 29 30 31 32 33 34 35 36 37 38 39 40 41 42 43 44 45 46 47 48 49 50
000
AXUS43 KLBF 252010
MISLBF


WESTERN AND NORTH CENTRAL NEBRASKA HOURLY WEATHER ROUNDUP
NATIONAL WEATHER SERVICE NORTH PLATTE NE
300 PM CDT WED MAY 25 2016

NOTE: "FAIR" INDICATES FEW OR NO CLOUDS BELOW 12,000 FEET WITH NO
SIGNIFICANT WEATHER AND/OR OBSTRUCTIONS TO VISIBILITY.

NOTE: STATIONS NOT REPORTING VARIABLES SUCH AS SKY/WEATHER OR
PRESSURE ARE PROVIDED BY RAWS AND APRS NETWORKS AND ARE NOT UNDER
NATIONAL WEATHER SERVICE QUALITY CONTROL.

...OBSERVATIONS IN AND NEAR THE EASTERN PANHANDLE OF NEBRASKA...

CITY           SKY/WX    TMP DP  RH WIND       PRES   REMARKS
PINE RIDGE     PTSUNNY   67  42  40 W10G21    29.88F
CHADRON        CLOUDY    71  48  43 NW15G21   29.89R
ALLIANCE       CLOUDY    70  44  39 SW15      29.92R
SIDNEY         PTSUNNY   69  39  33 NW15      29.97R
CRESCENT LAKE    N/A     56  44  64 SE5G33      N/A
BIG SPRINGS      N/A     73  58  59 W9          N/A
$$

...OBSERVATIONS IN NORTHERN NEBRASKA AND FAR SOUTHERN SOUTH DAKOTA...

CITY           SKY/WX    TMP DP  RH WIND       PRES   REMARKS
VALENTINE      SUNNY     78  49  35 W13       29.83F
THEDFORD       SUNNY     78  55  43 W15G22    29.87F
AINSWORTH      MOSUNNY   77  54  45 W13       29.84F
O`NEILL        MOSUNNY   78  56  45 W15       29.83F
ORD            MOSUNNY   78  58  49 SW10      29.84S
BROKEN BOW     SUNNY     75  56  51 VRB5      29.87F
BUTTE            N/A     76  59  54 W9          N/A
CHAMBERS         N/A     81  57  43 W3G13       N/A
EWING            N/A     80  62  53 SW8G17      N/A
$$

...OBSERVATIONS IN SOUTHWEST NEBRASKA AND FAR NORTHEAST COLORADO...

CITY           SKY/WX    TMP DP  RH WIND       PRES   REMARKS
WRAY           FAIR      73  52  46 N3        29.94F
HOLYOKE        FAIR      79  50  36 N3        29.94F
IMPERIAL       SUNNY     74  50  42 N6        29.92S
OGALLALA       SUNNY     74  52  45 S7G16     29.91S
NORTH PLATTE   SUNNY     76  56  49 W8        29.88F
MCCOOK         SUNNY     79  53  40 CALM      29.88S
LEXINGTON      SUNNY     76  57  52 NW3       29.88S
PAXTON           N/A     72  58  61 SW7         N/A
STAPLETON        N/A     79  58  47 CALM        N/A
GOTHENBURG       N/A     77  52  41 SW3         N/A
CALLAWAY         N/A     75  63  66 W12         N/A
$$

...OBSERVATIONS IN CENTRAL LINCOLN COUNTY AREA...

CITY           SKY/WX    TMP DP  RH WIND       PRES   REMARKS
N.P. AIRPORT   SUNNY     76  56  49 W8        29.88F
N.P. DOWNTOWN    N/A     76  55  48 W3G12       N/A
N.P. SOUTHEAST   N/A     77  55  46 W3          N/A
N.P. HILLCREST   N/A     74  52  46 W8          N/A
$$

...SOME OBSERVATIONS FROM AROUND THE REGION...

CITY           SKY/WX    TMP DP  RH WIND       PRES   REMARKS
DENVER         MOSUNNY   70  40  33 E8        29.98F
LARAMIE        CLOUDY    60  24  25 W20G35    30.04S
CHEYENNE       PTSUNNY   61  34  36 W9        29.99F
SCOTTSBLUFF    MOSUNNY   72  36  26 W13G24    29.92F
RAPID CITY     LGT RAIN  57  47  69 N24G37    29.86R
BISMARCK       MOSUNNY   68  58  70 SE6       29.76F
PIERRE         MOSUNNY   73  57  57 W12G20    29.76F
SIOUX FALLS    MOSUNNY   76  60  57 SW8G17    29.81F
OMAHA          PTSUNNY   79  62  56 S9        29.83F
GRAND ISLAND   PTSUNNY   78  62  57 SW6       29.86S
KANSAS CITY    MOSUNNY   80  65  59 S9G18     29.88F
WICHITA        PTSUNNY   88  75  65 S17G24    29.81F HX  97
OKLAHOMA CITY  PTSUNNY   87  71  58 S17G26    29.88S HX  93
DALLAS         CLOUDY    86  73  65 S18       29.94F HX  93
AMARILLO       SUNNY     88  33  14 SW10G21   29.96F
DODGE CITY     SUNNY     83  61  47 W9        29.86S
HAYS           PTSUNNY   70  64  83 CALM      29.85S
GOODLAND       SUNNY     74  55  51 VRB3      29.93F
$$




USA.gov is the U.S. government's official web portal to all federal, state and local government web resources and services.